Regional Weather Roundup
Issued by NWS Jackson, KY

Home | Current Version | Previous Version | Graphics & Text | Print | Product List | Glossary On
Versions: 1 2 3 4 5 6 7 8 9 10 11 12 13 14 15 16 17 18 19 20 21 22 23 24 25 26 27
000
ASUS43 KJKL 190010
RWRJKL

EAST KENTUCKY HOURLY WEATHER ROUNDUP
NATIONAL WEATHER SERVICE JACKSON KY
800 PM EDT MON SEP 18 2017

NOTE: "FAIR" INDICATES FEW OR NO CLOUDS BELOW 12,000 FEET WITH
NO SIGNIFICANT WEATHER AND/OR OBSTRUCTIONS TO VISIBILITY.

* THESE REPORTS ARE NOT UNDER NWS QUALITY CONTROL AND MAY NOT
  REPORT WEATHER SUCH AS PRECIPITATION AND FOG.

KYZ079-080-083-085-087-088-110-112-115-119-120-190100
...EASTERN KENTUCKY...

CITY           SKY/WX    TMP DP  RH WIND       PRES   REMARKS
JACKSON        PTCLDY    73  59  61 CALM      30.05S
6HR MIN TEMP:  72; 6HR MAX TEMP:  82;

LONDON         CLEAR     74  66  76 CALM      30.06R
6HR MIN TEMP:  74; 6HR MAX TEMP:  83;

SOMERSET*      CLOUDY    73  66  78 CALM      30.05S
MONTICELLO*    CLEAR     72  67  84 VRB7      30.06R
6HR MIN TEMP:  71; 6HR MAX TEMP:  86;

WILLIAMSBURG*  CLEAR     72  72 100 CALM      30.05R
MIDDLESBORO*   CLEAR     72  66  82 CALM      30.05S
6HR MIN TEMP:  72; 6HR MAX TEMP:  83;

HARLAN APT*    CLEAR     70  61  73 CALM      30.06S
PIKE CO APT*     N/A     74  60  61 CALM      30.06F
BIG SANDY APT* CLEAR     71  63  77 CALM      30.05S
6HR MIN TEMP:  71; 6HR MAX TEMP:  82;

MOREHEAD APT*  CLEAR     73  64  73 CALM      30.06R
$$

KYZ035-036-041-042-044-050-067-078-099-190100
...CENTRAL KENTUCKY...

CITY           SKY/WX    TMP DP  RH WIND       PRES   REMARKS
MT STERLING*   CLOUDY    75  64  69 SE3       30.05S
FLEMING/MASON* CLEAR     73  65  74 SE3       30.04F
DANVILLE*      CLOUDY    73  66  78 CALM      30.05S
LEXINGTON      CLOUDY    78  65  63 SE6       30.03S
6HR MIN TEMP:  78; 6HR MAX TEMP:  86;

FRANKFORT      CLOUDY    77  68  73 CALM      30.01S
6HR MIN TEMP:  77; 6HR MAX TEMP:  88;

LOUISVILLE     MOCLDY    81  67  62 CALM      29.98F
6HR MIN TEMP:  81; 6HR MAX TEMP:  86;

LEBANON*         N/A     77  64  65 CALM      30.02S
GLASGOW*       RAIN      74  67  77 W7        30.04R
BOWLING GREEN  LGT RAIN  71  71 100 NE6       30.02F FOG
6HR MIN TEMP:  71; 6HR MAX TEMP:  89; 6HR PCP:  0.57;

$$

KYZ091>093-OHZ055-061-077-WVZ005-015-034-035-042-190100
...SOUTHERN OHIO/WEST VIRGINIA...

CITY           SKY/WX    TMP DP  RH WIND       PRES   REMARKS
COVINGTON      CLOUDY    73  72  96 SE3       30.02R
COLUMBUS       MOCLDY    77  64  64 CALM      30.02R
DAYTON         CLOUDY    70  67  90 SE7       30.03S
WILMINGTON     MOCLDY    72  67  84 S7        30.03R
HUNTINGTON     CLEAR     73  64  73 CALM      30.02S
CHARLESTON     PTCLDY    72  66  81 SE3       30.03S
PINEVILLE*     CLEAR     66  63  91 MISG      30.12R
BECKLEY        PTCLDY    69  60  73 CALM      30.10S
BLUEFIELD      CLOUDY    69  58  67 CALM      30.12R
LOGAN CO APT*    N/A     72  64  78 CALM      30.06S
$$

VAZ002-007-008-TNZ017-027-036-066-071-190100
...SOUTHWEST VIRGINIA/EAST TENNESSEE...

CITY           SKY/WX    TMP DP  RH WIND       PRES   REMARKS
WISE*          CLEAR     68  55  64 N3        30.13R
JONESVILLE*      N/A     72  63  73 CALM      30.07R
ABINGDON*      CLEAR     69  61  75 CALM      30.09R
BRISTOL        PTCLDY    70  61  73 CALM      30.05R
MORRISTOWN*    CLEAR     77  61  57 N3        30.02S
SEVIERVILLE*   CLEAR     77  61  57 CALM      30.01S
KNOXVILLE      PTCLDY    79  62  56 NE3       30.01S
LAFOLLETTE*    PTCLDY    72  66  83 CALM      30.07S
OAK RIDGE      CLEAR     76  66  71 CALM      30.04R
CROSSVILLE     PTCLDY    73  63  70 CALM      30.08R
NASHVILLE      PTCLDY    83  65  54 NE5       30.01R
$$

...KEY TO REMARKS...
VSB - VISIBILITY IN MILES
WCI - WIND CHILL INDEX
HX  - HEAT INDEX

$$




USA.gov is the U.S. government's official web portal to all federal, state and local government web resources and services.